Tracking 30995 objects as of 5-Jul-2025
HD Live streaming from Space Station
objects crossing your sky now

STARLINK-3397

Track STARLINK-3397 now!
10-day predictions
STARLINK-3397 is classified as:


NORAD ID: 51115
Int'l Code: 2022-005M
Perigee: 546.0 km
Apogee: 547.8 km
Inclination: 53.2 °
Period: 95.4 minutes
Semi major axis: 6917 km
RCS: Unknown
Launch date: January 19, 2022
Source: United States (US)
Launch site: AIR FORCE EASTERN TEST RANGE (AFETR)
Your satellite tracking list
TIANZHOU 3
Track 1 satellite(s)




NASA's NSSDC Master Catalog

Two Line Element Set (TLE):
1 51115U 22005M   25186.60518568 -.00000324  00000-0 -22429-5 0  9998
2 51115  53.2193 318.3261 0001255  94.7346 265.3789 15.08834189191578
Source of the keplerian elements: AFSPC